Погода в Уральске

Погода в Уральске : погода сейчас, прогноз погоды и архив. Всё, что Вы хотите узнать о погоде в Уральске!

Хотите узнать прогноз погоды в Уральске? Тогда Вам сюда: Погода в Уральске

Поиск расширенной информации на нашем сайте:

Другие новости

Новости СМИ2

Главная страница сайта

Новости сайта

03.07.2017

Напоминаем, что на нашем специализированном сайте Метеоцентр.Азия вы можете получить высокодетализированные автоматические прогнозы погоды по пунктам России, СНГ и мира в авиационном формате (включающие направление и скорость ветра, видимость, явления погоды, количество и форму облачности, нижнюю и верхнюю границу облачности).

Рекомендуем: Дженерал экспресс курьерская служба доставки.

Погода в Уральске - сегодня

Время (UTC), дата Ветер
(°,м/с) 
Видим.   Явления Облачность Т
(°С)
Тd
(°С)
f(%) Тe
(°С)
Pmin
(гПа)
dP
(гПа)
Po
(мм)
O2
(г/м3)
Тmin Tmax R s Состояние
почвы
12 20.08.17 010 (С) 10 км    ясно 
+31.9 +8.2 23 +32  1022.9  -0.8  764  274           
15 20.08.17 040 (СВ) 10 км    3/0 верхняя 
[Ci fib]
+30.1 +7.9 25 +30  1022.4  -0.6  764  276    +31.9       
18 20.08.17 040 (СВ) н/о    ясно 
+20.6 +8 44 +21  1024  1.5  765  285    +31.9       
21 20.08.17 тихо ()   н/о    ясно 
+14.6 +7.9 64 +15  1023.8  -0.3  765  291           
00 21.08.17 040 (СВ) н/о    ясно 
+12.7 +7.8 72 +14  1023.6  -0.2  764  293           
03 21.08.17 тихо ()   10 км    ясно 
+13.3 +8.7 74 +13  1024.1  0.5  765  292           
06 21.08.17 030 (СВ) 10 км    ясно 
+24.9 +10 39 +26  1023.7  -0.2  765  281  +11.7         
09 21.08.17 100 (В) 10 км    ясно 
+28.8 +10.9 33 +31  1022.1  -1.6  763  276           
12 21.08.17 360 (С) 10 км    4/4 1000 м 
[Cu med, cong]
+31.2 +11.3 29 +34  1021.6  -0.5  763  274           
15 21.08.17 020 (С) 10 км    8/8 1000 м 
[Cu med, cong]
+29.5 +12.9 36 +34  1019.2  -2.4  761  274    +32.3       
18 21.08.17 060 (СВ) н/о    5/0 верхняя 
[Ci ing]
+24.6 +13.2 49 +30  1019.8  0.6  762  279    +32.3       
21 21.08.17 020 (С) н/о    3/0 верхняя 
[Ci ing]
+19.8 +13.9 69 +27  1019.7  -0.2  762  283           
00 22.08.17 050 (СВ) н/о    ясно 
+16.5 +13.1 80 +23  1020  0.3  762  287           
03 22.08.17 050 (СВ) 10 км    ясно 
+16.8 +12.8 77 +23  1020  762  287           
06 22.08.17 080 (В) 10 км    ясно 
+25 +11.1 42 +27  1020  0.1  762  279  +16         
09 22.08.17 110 (В) 10 км    ясно 
+31.9 +3.3 16 +32  1018.9  -1  761  274           
12 22.08.17 140 (ЮВ) 10 км    ясно 
+33.5 +3.2 15 +34  1018.1  -0.8  761  273           
15 22.08.17 070 (В) 10 км    ясно 
+31.4 +10.4 27 +33  1018  -0.1  760  273    +34.2       
18 22.08.17 090 (В) н/о    ясно 
+26.4 +6.4 28 +26  1019.3  1.2  761  279    +34.2       
21 22.08.17 100 (В) н/о    ясно 
+25.3 +4.2 26 +25  1019.9  0.6  762  280           
00 23.08.17 040 (СВ) н/о    ясно 
+15.7 +7.2 57 +16  1020.6  0.5  762  289           
03 23.08.17 050 (СВ) 10 км    ясно 
+14.8 +7.5 62 +15  1021.5  0.9  763  290           
06 23.08.17 100 (В) 10 км    ясно 
+27 +10.4 35 +28  1021.7  0.4  763  278  +14.3         
09 23.08.17 170 (Ю) 10 км    3/3 1000 м 
[Cu hum]
+34.5 +2 13 +35  1020.7  -0.9  762  272           
12 23.08.17 150 (ЮВ) 10 км    5/5 1000 м 
[Cu hum]
+35.4 +2.1 12 +35  1019.6  -1.1  762  271           
Время (UTC), дата Ветер
(°,м/с) 
Видим.   Явления Облачность Т
(°С)
Тd
(°С)
f(%) Тe
(°С)
Pmin
(гПа)
dP
(гПа)
Po
(мм)
O2
(г/м3)
Тmin Tmax R s Состояние
почвы

Для получения пояснительной информации подведите курсор к названию столбца.

ПОГОДА в Уральске - архив

Всё, что Вы хотите узнать о погоде в Уральске - удобно и подробно!

Выберите нужную дату (начиная с 1 января 2015* года) и нажмите кнопку "Найти".
Будут отображены архивные сводки погоды по пункту Уральск, начиная с указанной даты.


Отображать данные в формате CSV (для использования в таблицах Excel)


Внимание! Наш архив погоды предназначен исключительно для личного некоммерческого использования в познавательных целях. Если Вам необходимы официальные справки о состоянии погоды (для производственных, юридических, коммерческих и т.п. целей), обращайтесь в органы Росгидромета.

*Примечание: данная дата относится к архиву по метеостанциям СССР (Россия, СНГ, Балтия).
Архив по метеостанциям Зарубежной Европы и Азии (кроме Китая) хранится 10 дней, по другим регионам земного шара (Китай, Африка, Америка, Австралия, Океания) - 1 день.

Уральск - район местоположения метеостанции


Название, широта, долгота, высота метеостанции:
Уральск (город) 51.2°ш. 51.3°д. 37 м над ур. моря [Казахстан]

Дополнительная информация

В oтличие oт бoльшинства пoгoдных сайтoв мы публикуем пoдрoбную метеoинфoрмацию в детальнoм прoфессиoнальнoм фoрмате.

Характеристики температуры и влажнoсти вoздуха измеряются на высoте 2 м в тени вдали oт зданий и деревьев.
Скoрoсть ветра измеряется на высoте 10 м (на урoвне рoста челoвека скoрoсть ветра ниже в 1.5-2 раза). Если метеoстанция нахoдится в гoрoде или в лесу, тo скoрoсть ветра занижена на 2-4 м/с пo сравнению с oткрытым местoм. Скoрoсть ветра над акватoриями крупных рек и oзёр, а также на вершинах хoлмoв на 2-5 м/с выше, чем в oбычных услoвиях.
Атмoсфернoе давление в разных тoчках местнoсти мoжет значительнo oтличаться oт давления на метеoстанции, в зависимoсти oт услoвий рельефа (при пoдъёме на 10 м давление пoнижается примернo на 1 мм рт.ст.).